[[{"header":{"parameterUnit":"m.s-1","parameterCategory":1,"la1":30.2992,"la2":30.254,"lo1":-89.0895,"lo2":-89.0443,"dy":0.0025,"dx":0.0025,"nx":19,"ny":19,"refTime":"2026-04-25T21:00:00:Z","depth":0,"parameterNumber":2,"parameterNumberName":"U-component_of_WINDS"},"data":[0,0,0,-1.8736,-1.8736,-1.8733,-1.8733,-1.8735,-1.8736,0,0,0,0,0,0,0,0,0,0,0,-1.874,-1.8741,-1.8736,-1.8736,-1.8733,-1.8733,-1.8735,-1.8736,0,0,0,0,0,0,0,0,0,0,0,-1.874,-1.8741,-1.8741,-1.8736,-1.8733,-1.8733,-1.8735,-1.8735,0,0,0,0,0,0,0,0,0,0,-1.8737,-1.8745,-1.874,-1.8741,-1.8736,-1.8733,-1.8733,-1.8735,-1.8735,-1.8739,0,-1.8744,0,-1.874,-1.8736,-1.8736,0,0,0,-1.8733,-1.8745,-1.8741,-1.8741,-1.8736,-1.8733,-1.8734,-1.8735,-1.8735,-1.874,-1.8744,-1.8744,-1.874,-1.8736,-1.8736,-1.8768,-1.8768,0,0,-1.8733,-1.8742,-1.8741,-1.8741,-1.8742,-1.8734,-1.8734,-1.8735,-1.874,-1.8744,-1.8744,-1.874,-1.8736,-1.8736,-1.8768,-1.8768,0,0,0,-1.8736,-1.8742,-1.8738,-1.8741,-1.874,-1.8734,-1.8734,-1.874,-1.8738,-1.8744,-1.874,-1.8736,-1.8736,-1.8767,-1.8768,-1.8789,0,0,0,-1.8736,-1.8743,-1.8738,-1.8743,-1.874,-1.874,-1.8739,-1.8738,-1.8738,-1.874,-1.8736,-1.8736,-1.8767,-1.8768,-1.8788,-1.8797,0,0,0,-1.8739,-1.8744,-1.8745,-1.8744,-1.8743,-1.874,-1.8738,-1.8738,-1.8736,-1.8736,-1.8736,-1.8767,-1.8767,-1.8787,-1.8795,-1.8808,0,0,0,-1.8746,-1.8763,-1.8745,-1.8764,-1.8743,-1.8753,-1.8738,-1.8745,-1.8748,-1.8736,-1.8767,-1.8768,-1.8786,-1.8794,-1.8806,-1.8819,-1.8825,0,0,-1.8773,-1.8767,-1.8777,-1.8761,-1.8777,-1.8753,-1.8772,-1.8767,-1.8759,-1.8766,-1.8766,-1.8788,-1.8795,-1.8807,-1.8858,-1.8863,0,0,0,-1.8789,-1.8796,-1.8799,-1.8802,-1.8798,-1.8796,-1.8787,-1.8785,-1.879,-1.8764,-1.8796,-1.88,-1.8807,-1.8812,-1.8816,-1.8821,-1.8771,-1.8771,-1.8771,-1.8838,-1.8828,-1.8844,-1.8834,-1.8837,-1.8828,-1.883,-1.8826,-1.8814,-1.8822,-1.8823,-1.8855,-1.8862,-1.8865,-1.887,-1.883,-1.883,-1.883,-1.883,-1.8876,-1.8885,-1.887,-1.888,-1.8869,-1.8878,-1.887,-1.8862,-1.8869,-1.8853,-1.8859,-1.8842,-1.8871,-1.8875,-1.8832,-1.8831,-1.8831,-1.8831,-1.8831,-1.8907,-1.8909,-1.8907,-1.891,-1.8914,-1.8904,-1.8911,-1.8901,-1.8892,-1.8897,-1.8897,-1.8897,-1.8894,-1.8898,-1.8898,-1.8898,-1.8898,-1.8899,-1.8899,-1.8939,-1.8935,-1.8942,-1.8941,-1.8942,-1.8942,-1.8934,-1.8934,-1.8932,-1.8924,-1.8924,-1.8912,-1.8876,-1.8866,-1.89,-1.89,-1.89,-1.89,-1.8899,-1.8979,-1.8969,-1.8979,-1.898,-1.8978,-1.8982,-1.897,-1.8973,-1.8972,-1.8976,-1.8963,-1.8938,-1.8931,-1.8928,-1.892,-1.8965,-1.8965,-1.8965,-1.8965,-1.9004,-1.9,-1.9009,-1.9011,-1.9012,-1.9002,-1.9015,-1.9009,-1.9002,-1.9001,-1.8993,-1.8982,-1.8979,-1.8974,-1.897,-1.8962,-1.9017,-1.9017,-1.9017,-1.9028,-1.9024,-1.9036,-1.9029,-1.9026,-1.9025,-1.9036,-1.9039,-1.9028,-1.9019,-1.8999,-1.8997,-1.8979,-1.8974,-1.8963,-1.8956,-1.8942,0,0]},{"header":{"parameterUnit":"m.s-1","parameterCategory":1,"la1":30.2992,"la2":30.254,"lo1":-89.0895,"lo2":-89.0443,"dy":0.0025,"dx":0.0025,"nx":19,"ny":19,"refTime":"2026-04-25T21:00:00:Z","depth":0,"parameterNumber":3,"parameterNumberName":"V-component_of_WINDS"},"data":[0,0,0,1.8493,1.8493,1.8477,1.8477,1.8469,1.8469,0,0,0,0,0,0,0,0,0,0,0,1.8506,1.8506,1.8493,1.8493,1.8477,1.8477,1.8469,1.8469,0,0,0,0,0,0,0,0,0,0,0,1.8506,1.8506,1.8506,1.8493,1.8477,1.8477,1.8469,1.8477,0,0,0,0,0,0,0,0,0,0,1.849,1.8509,1.8506,1.8506,1.8493,1.8477,1.8477,1.8477,1.8476,1.8482,0,1.8489,0,1.8479,1.8469,1.8469,0,0,0,1.8487,1.851,1.8499,1.8507,1.8493,1.8477,1.8483,1.8476,1.8476,1.8481,1.8489,1.8488,1.8479,1.8469,1.8469,1.8523,1.8524,0,0,1.8488,1.8507,1.8499,1.8499,1.8502,1.8483,1.8482,1.8476,1.8485,1.8489,1.8488,1.8479,1.8469,1.847,1.8523,1.8523,0,0,0,1.8495,1.8508,1.8497,1.8499,1.8495,1.8483,1.8482,1.8486,1.848,1.8488,1.8479,1.8469,1.847,1.8522,1.8523,1.8569,0,0,0,1.8495,1.8512,1.8497,1.8509,1.8496,1.849,1.8492,1.8481,1.8479,1.8479,1.8469,1.847,1.8522,1.8523,1.8566,1.8587,0,0,0,1.8504,1.8513,1.8513,1.851,1.8504,1.849,1.8484,1.848,1.8474,1.8469,1.847,1.8521,1.8522,1.8564,1.8583,1.8607,0,0,0,1.852,1.8553,1.8514,1.8548,1.8504,1.8518,1.8484,1.8493,1.8495,1.847,1.8522,1.8523,1.8563,1.8581,1.8605,1.8632,1.8644,0,0,1.8573,1.8561,1.8579,1.8544,1.857,1.8519,1.8552,1.8535,1.8516,1.8522,1.8523,1.8567,1.8583,1.8607,1.8708,1.8718,0,0,0,1.8602,1.8616,1.8619,1.8621,1.8609,1.8601,1.8576,1.857,1.8574,1.8523,1.8581,1.859,1.8603,1.8615,1.8624,1.8635,1.8529,1.8529,1.8529,1.8705,1.868,1.871,1.8683,1.8686,1.8661,1.8661,1.8648,1.8622,1.8636,1.8638,1.8702,1.8717,1.8723,1.8735,1.8649,1.8649,1.865,1.865,1.8781,1.8797,1.8762,1.8778,1.8752,1.8764,1.8742,1.8723,1.8731,1.8699,1.8709,1.8676,1.8735,1.8744,1.8653,1.8652,1.8652,1.8652,1.8651,1.8846,1.885,1.8842,1.8843,1.8847,1.8818,1.8828,1.8804,1.878,1.8791,1.879,1.879,1.8786,1.8792,1.8793,1.8793,1.8793,1.8793,1.8793,1.8917,1.8907,1.8918,1.8909,1.8908,1.8903,1.8878,1.8876,1.8867,1.8849,1.8848,1.8822,1.8745,1.8727,1.8797,1.8796,1.8796,1.8795,1.8795,1.9005,1.8981,1.8999,1.8998,1.8985,1.8991,1.8959,1.8957,1.8952,1.8958,1.8928,1.8876,1.8861,1.8854,1.8839,1.8933,1.8933,1.8933,1.8933,1.906,1.9051,1.9064,1.9064,1.906,1.9034,1.9055,1.9037,1.9014,1.9009,1.8992,1.8969,1.8963,1.8952,1.8943,1.8928,1.9043,1.9043,1.9043,1.9113,1.9102,1.9125,1.9103,1.9091,1.9082,1.9101,1.9102,1.9071,1.9047,1.9005,1.9,1.8964,1.8953,1.8929,1.8915,1.8888,0,0]}]]